Location: Unspecified
(44.0704°N, 88.6889°W)
Time: 18:48:45
(UTC+02:00)

Altair - Pass Details

Date: 17 June 2019
Orbit: 1501 x 1683 km, 47.2° (Epoch: 20 July)

Event Time Altitude Azimuth Distance (km) Brightness Sun altitude
Rises 11:03:28 0° 294° (WNW) 4,884 9.9 -10.0°
Reaches altitude 10° 11:06:39 10° 291° (WNW) 3,913 9.4 -9.6°
Maximum altitude 11:16:27 59° 216° (SW) 1,890 7.7 -8.4°
Drops below altitude 10° 11:26:18 10° 140° (SE) 3,931 9.6 -7.1°
Sets 11:29:30 0° 136° (SE) 4,908 10.2 -6.7°
